OpenBCM V1.13 (Linux)

Packet Radio Mailbox

DB0FHN

[JN59NK Nuernberg]

 Login: GUEST





  
LU9DCE > KEP      25.04.19 19:34l 247 Lines 12208 Bytes #999 (0) @ WW
BID : 22772_LU9DCE
Read: DK3UZ DF7EAV GUEST
Subj: TLE 25 04
Path: DB0FHN<DB0BLO<DB0ERF<DB0RES<IR2UBX<EA2RCF<LU9DCE
Sent: 190425/1801Z 22772@LU9DCE.TOR.BA.ARG.SOAM LinBPQ6.0.18

            __    _  _  ___  ____   ___  ____    ____  ____  ____
           (  )  / )( \/ _ \(    \ / __)(  __)  (  _ \(  _ \/ ___)
           / (_/\) \/ (\__  )) D (( (__  ) _)    ) _ ( ) _ (\___ \
           \____/\____/(___/(____/ \___)(____)  (____/(____/(____/
               ESTACION DE PACKET RADIO - BUENOS AIRES (GF05OM)
                   BOLETINES INFORMATIVOS PROGRAMADOS (BIP)
              28.125 USB @ 300 BAUD --- HELLOCODELINUX@GMAIL.COM

+----------------------------------------------------------------------------+
OSCAR 7
1  7530U 74089B   19114.81371858 -.00000032  00000-0  78534-4 0  9997
2  7530 101.7389  83.0494 0012558  92.6436  22.6781 12.53637682 33640
OSCAR 11 (UoSAT 2)
1 14781U 84021B   19115.38802347  .00000069  00000-0  14639-4 0  9990
2 14781  97.6159 142.6602 0009652 131.5688 228.6355 14.83078638890719
OSCAR 19 (LUSAT)
1 20442U 90005G   19114.43578286  .00000015  00000-0  21841-4 0  9991
2 20442  98.6443  56.5419 0010986 316.9698  43.0626 14.32922933528468
EYESAT A
1 22825U 93061C   19115.20571591 -.00000009  00000-0  14476-4 0  9991
2 22825  98.9009 102.6078 0008876 151.1300 209.0374 14.30056348334166
ITAMSAT
1 22826U 93061D   19115.08017488  .00000004  00000-0  19500-4 0  9995
2 22826  98.8949 102.4777 0009571 141.4814 218.7052 14.30389752334346
RADIO ROSTO
1 23439U 94085A   19114.61669597 -.00000035 +00000-0 +19928-3 0  9993
2 23439 064.8168 205.1879 0147307 123.8988 237.6046 11.27567861001686
JAS 2
1 24278U 96046B   19114.53604326 -.00000024  00000-0  10729-4 0  9993
2 24278  98.5293 275.4494 0350711  23.2291 338.4273 13.53090692120340
TECHSAT 1B
1 25397U 98043D   19114.65977284 -.00000008  00000-0  15667-4 0  9992
2 25397  98.6847  55.4836 0001401 147.2371 212.8895 14.23663935 80041
ISS (ZARYA)
1 25544U 98067A   19115.51040572  .00001427  00000-0  30272-4 0  9993
2 25544  51.6409 263.0334 0001111 214.7214 223.5370 15.52589973167070
PCSAT
1 26931U 01043C   19114.54796156 -.00000054  00000-0  10953-4 0  9990
2 26931  67.0496 145.9783 0006027 278.6851  81.3567 14.30539265917087
SAUDISAT 1C
1 27607U 02058C   19115.39439558 -.00000003  00000-0  20404-4 0  9998
2 27607  64.5552 215.6013 0082376 266.8586  92.3089 14.75538554879020
CUTE-1
1 27844U 03031E   19114.49504088  .00000037  00000-0  36340-4 0  9996
2 27844  98.6859 123.5297 0009710 183.8494 176.2610 14.22171768820445
CUBESAT XI 4
1 27848U 03031J   19115.24559782  .00000025  00000-0  31343-4 0  9990
2 27848  98.6937 124.7571 0009412 193.0518 167.0417 14.21767752820405
MOZHAYETS 4
1 27939U 03042A   19115.40585266  .00000070  00000-0  21180-4 0  9995
2 27939  98.0310 252.3082 0011809 235.3725 124.6376 14.66771632832589
CUBESAT XI 5
1 28895U 05043F   19115.36505806  .00000126  00000-0  32913-4 0  9995
2 28895  97.9505 259.9847 0017408 158.9956 201.1966 14.63652085719536
CUTE-1.7+APD II
1 32785U 08021C   19115.36171298  .00000203  00000-0  27513-4 0  9997
2 32785  97.5498 117.6404 0014704  84.0559 276.2334 14.88283791595602
DELFI C3
1 32789U 08021G   19114.83494126  .00001228  00000-0  86420-4 0  9990
2 32789  97.4698 166.1432 0010947 318.6207  41.4191 15.06820000598706
SEEDS
1 32791U 08021J   19115.00153517  .00000221  00000-0  27829-4 0  9999
2 32791  97.5295 123.2103 0014853  63.7344 296.5400 14.90782527595966
YUBELEINY
1 32953U 08025A   19115.31784507  .00000020  00000-0  75656-4 0  9994
2 32953  82.5064 178.5782 0018008 245.1686 114.7523 12.43088899495559
PRISM (HITOMI)
1 33493U 09002B   19115.30673469  .00000673  00000-0  64629-4 0  9995
2 33493  98.1220  34.1996 0015303   8.5137 351.6340 14.96589825557011
KKS-1 (KISEKI)
1 33499U 09002H   19115.14968376  .00000087  00000-0  20934-4 0  9997
2 33499  98.3539 312.1064 0009756  27.6478 332.5247 14.75426184551183
SWISSCUBE
1 35932U 09051B   19114.69882672  .00000111  00000-0  36216-4 0  9996
2 35932  98.5821 279.0792 0007060 343.2383  16.8580 14.56266481508770
BEESAT
1 35933U 09051C   19115.04873359  .00000089  00000-0  31156-4 0  9991
2 35933  98.5853 281.1707 0005573 358.9637   1.1548 14.56358050508931
ITUPSAT 1
1 35935U 09051E   19114.45625086  .00000080  00000-0  29681-4 0  9990
2 35935  98.5963 280.8025 0007823 353.7905   6.3193 14.55520376508603
XIWANG-1 (HOPE-1)
1 36122U 09072B   19115.08838389 -.00000045  00000-0 -73045-5 0  9991
2 36122 100.0729 120.0361 0008068 107.3551 252.8485 13.16349246449697
TISAT 1
1 36799U 10035E   19115.39323698  .00000227  00000-0  29095-4 0  9993
2 36799  98.1480 265.7699 0010896 262.8799  97.1179 14.91061272476674
JUGNU
1 37839U 11058B   19111.97086947 +.00000319 +00000-0 +28352-4 0  9995
2 37839 019.9618 324.8036 0018946 050.9143 091.9649 14.12647981388978
SRMSAT
1 37841U 11058D   19112.07559017  .00000303  00000-0  21511-4 0  9996
2 37841  19.9732  19.7480 0011711 283.5499 203.9721 14.10629356388545
M-CUBED/EXP-1 PRIME
1 37855U 11061F   19114.83123248  .00001180  00000-0  67168-4 0  9996
2 37855 101.7226 342.2535 0173817 239.3959 119.0011 15.05289608408526
HORYU 2
1 38340U 12025D   19115.06050607  .00000151  00000-0  30107-4 0  9991
2 38340  98.3350 151.9948 0010258 301.4616  58.5589 14.75696166373107
STRAND 1
1 39090U 13009E   19115.12375741  .00000026  00000-0  24130-4 0  9993
2 39090  98.4941 321.9815 0010386  90.9354 269.3022 14.35079531322565
SOMP
1 39134U 13015E   19114.68821489  .00000966  00000-0  53773-4 0  9992
2 39134  64.8637 198.6192 0025642 312.6271  47.2694 15.20013873332238
BEESAT 3
1 39135U 13015F   19114.71083399  .00000842  00000-0  51809-4 0  9998
2 39135  64.8669 216.0826 0013060 320.2480  39.7688 15.17343607331900
BEESAT 2
1 39136U 13015G   19115.38678353  .00000972  00000-0  59118-4 0  9998
2 39136  64.8693 217.5563 0014141 312.1514  47.8409 15.16788611331932
CUBEBUG 1
1 39153U 13018D   19115.22348543  .00000165  00000-0  28403-4 0  9995
2 39153  97.9746 213.6667 0017281  19.9992 340.1894 14.80544453323751
ZACUBE
1 39417U 13066B   19115.18494009  .00000179  00000-0  28903-4 0  9995
2 39417  97.5659 131.7418 0058159 211.3842 148.3897 14.81088366292975
TRITON 1
1 39427U 13066M   19115.19263765  .00000227  00000-0  44287-4 0  9997
2 39427  97.6721  95.9518 0113404 340.7633  18.9307 14.67815170290341
GOMX 1
1 39430U 13066Q   19115.31564358  .00000202  00000-0  45133-4 0  9991
2 39430  97.7416  75.4697 0152908  65.8024 295.9072 14.59225663288671
HUMSAT D
1 39433U 13066T   19114.82724653  .00000504  00000-0  54462-4 0  9995
2 39433  97.5597 164.5576 0032252 122.4841 237.9503 14.92141854294896
CUBEBUG 2
1 39440U 13066AA  19114.49432245 +.00000187 +00000-0 +33262-4 0  9991
2 39440 097.6023 116.1923 0078714 264.1955 095.0278 14.75827782290633
FUNCUBE 1
1 39444U 13066AE  19115.28302827  .00000228  00000-0  34469-4 0  9991
2 39444  97.5643 133.7257 0057458 205.0473 154.7951 14.81901219291873
UWE-3
1 39446U 13066AG  19114.99914155  .00000169  00000-0  29300-4 0  9995
2 39446  97.5828 123.6213 0068698 237.8575 121.5960 14.78361950291188
SPROUT
1 39770U 14029E   19115.27170933  .00000753  00000-0  89641-4 0  9998
2 39770  97.8795 218.9396 0007665 264.9343  95.0993 14.87270173266746
UNISAT 6
1 40012U 14033C   19114.89198681  .00000146  00000-0  29399-4 0  9991
2 40012  97.7656 343.8393 0056882 274.9205  84.5511 14.73954165260614
DUCHIFAT 1
1 40021U 14033M   19115.03603053  .00000249  00000-0  31301-4 0  9992
2 40021  97.9232  39.4536 0011670 226.4013 133.6237 14.90583131263409
QB50P1
1 40025U 14033R   19114.59311058 +.00000289 +00000-0 +36742-4 0  9995
2 40025 097.9064 034.3656 0011145 237.8844 122.1291 14.88909056262618
CHUBUSAT 1
1 40300U 14070C   19115.21992769  .00000626  00000-0  30326-4 0  9993
2 40300  97.3296 190.7731 0018397 246.6518 175.4589 15.22007180247731
NUDT-PHONESAT
1 40900U 15049B   19115.30151231  .00001898  00000-0  84650-4 0  9998
2 40900  97.4390 125.1772 0013689  24.8764  96.4387 15.22558264199387
ZDPS 2A
1 40901U 15049C   19115.28809451  .00000886  00000-0  47279-4 0  9992
2 40901  97.4599 121.9012 0014841  38.3278  82.5868 15.17627582198980
ZDPS 2B
1 40902U 15049D   19115.36957757  .00000872  00000-0  46883-4 0  9990
2 40902  97.4544 119.5566 0014798  36.2903  70.8357 15.17405893198972
XW-2A
1 40903U 15049E   19115.33161631  .00001571  00000-0  39260-4 0  9994
2 40903  97.3437 157.7756 0013094 351.1332 141.5124 15.41636135201875
KAITUO 1A
1 40904U 15049F   19115.39537634  .00000499  00000-0  29941-4 0  9994
2 40904  97.4664 118.3375 0016028  40.9214  95.3062 15.15311341198772
OBJECT G
1 40905U 15049G   19115.36600701  .00000070  00000-0  74180-5 0  9999
2 40905  97.4698 115.9299 0016962  35.9482  71.3672 15.14240280198656
XW-2C
1 40906U 15049H   19115.40226797  .00000809  00000-0  46006-4 0  9999
2 40906  97.4672 118.3844 0016227  33.0187  76.6064 15.15601797198778
XW-2D
1 40907U 15049J   19115.38576764  .00000700  00000-0  40071-4 0  9995
2 40907  97.4655 118.0474 0015367  31.6225  74.0221 15.15782890198789
LILACSAT 2
1 40908U 15049K   19115.39333080  .00000498  00000-0  31178-4 0  9991
2 40908  97.4781 116.9898 0017126  35.6899  72.0100 15.13758392198594
XW-2F
1 40910U 15049M   19115.26966958  .00001119  00000-0  59575-4 0  9998
2 40910  97.4623 119.8107 0015770  25.7160  97.9750 15.17177430198769
XW-2B
1 40911U 15049N   19115.41601446  .00000672  00000-0  38679-4 0  9999
2 40911  97.4675 118.7101 0015320  32.5085  73.3912 15.15714293198683
KAITUO 1B
1 40912U 15049P   19115.25225962  .00000975  00000-0  49083-4 0  9994
2 40912  97.4507 123.3145 0015476  10.0880 118.3964 15.19471959199045
TIANWANG 1C (TW-1C)
1 40926U 15051B   19115.35060510  .00009656  00000-0  14776-3 0  9994
2 40926  97.1416 161.6195 0007743 199.6269 289.2724 15.54542843201719
